Location: Ithaca
(42.4410°N, 76.4970°W)
Time: 05:49:04
(UTC-04:00)

ISS - Visible Passes

Search period start: 21 April 2015 00:00
Search period end: 01 May 2015 00:00
Orbit: 395 x 403 km, 51.6° (Epoch: 20 April)

Date Brightness Start Highest point End Pass type
(mag) Time Alt. Az. Time Alt. Az. Time Alt. Az.
21 Apr -0.6 21:53:49 10° WSW 21:54:58 11° SW 21:55:22 11° SW visible
22 Apr -1.3 20:58:29 10° W 21:01:06 22° SW 21:03:40 10° S visible
24 Apr -0.3 20:48:24 10° WSW 20:48:52 10° SW 20:49:12 10° SW visible
